Regional Weather Roundup
Issued by NWS

Home | Current Version | Previous Version | Graphics & Text | Print | Product List | Glossary On
Versions: 1 2 3 4 5 6 7 8 9 10 11 12 13 14 15 16 17 18 19 20 21 22 23 24 25 26 27 28 29 30 31 32 33 34 35 36 37 38 39 40 41 42 43 44 45 46 47 48 49 50
000
ASUS43 KDMX 210707
RWRIA

WEATHER ROUNDUP FOR IOWA
NATIONAL WEATHER SERVICE DES MOINES IA
200 AM CDT SUN SEP 21 2014

NOTE: "FAIR" INDICATES FEW OR NO CLOUDS BELOW 12,000 FEET WITH NO
SIGNIFICANT WEATHER AND/OR OBSTRUCTIONS TO VISIBILITY.

* - THESE STATIONS ARE NOT NWS STATIONS...THUS NOT UNDER NWS
QUALITY CONTROL.  THEY ALSO DO NOT REPORT WEATHER SUCH
AS PRECIPITATION OR FOG.

IAZ001>003-012>014-020>022-031>034-043>046-210800-
   NORTHWEST IOWA

CITY           SKY/WX    TMP DP  RH WIND       PRES   REMARKS
CARROLL *      PTCLDY    54  52  94 W7        30.03S
CHEROKEE *     CLEAR     57  48  72 W7        30.04S
DENISON *      CLEAR     54  54 100 VRB6      30.04S
LE MARS *        N/A     54  48  82 W6        30.07R
ORANGE CITY *  CLEAR     52  45  76 W5        30.06R
SHELDON *      CLEAR     55  46  71 W7        30.03R
SIOUX CITY     CLEAR     57  50  77 W7        30.08R
SPENCER        CLEAR     54  47  77 W12       30.01S
STORM LAKE *   CLEAR     52  52 100 W9        30.04S
$$

IAZ055>058-069>071-079>083-090>094-210800-
   SOUTHWEST IOWA

CITY           SKY/WX    TMP DP  RH WIND       PRES   REMARKS
ATLANTIC *     CLEAR     54  52  94 CALM      30.06R
AUDUBON *      CLEAR     52  46  82 CALM      30.06S
CLARINDA *     CLEAR     54  52  94 CALM      30.08S
COUNCIL BLFS * CLEAR     59  57  94 W3        30.07R
CRESTON *      CLEAR     55  50  82 NW8       30.05S
HARLAN  *      CLEAR     54  54 100 CALM      30.09S
LAMONI         CLEAR     59  50  72 N8        30.04R
RED OAK *      CLEAR     55  52  88 CALM      30.07S
SHENANDOAH *     N/A     57  54  88 SW3       30.09R
$$

IAZ047>049-059>061-072>074-084-210800-
   CENTRAL IOWA

CITY           SKY/WX    TMP DP  RH WIND       PRES   REMARKS
AMES           CLEAR     54  52  93 W9        29.99S
ANKENY *       CLEAR     57  54  88 W8        29.99F
CHARITON *     CLEAR     57  52  82 NW5       30.02S
DES MOINES     CLEAR     59  51  75 W6        30.00S
GRINNELL*      CLEAR     54  52  94 W6        29.98F
KNOXVILLE *    CLEAR     57  52  82 NW7       29.99S
MARSHALLTOWN   CLEAR     54  52  93 W7        29.96S
PELLA *        CLEAR     57  54  88 W6        30.01S
PERRY *          N/A     54  52  94 W6        30.02S
$$

IAZ004>006-015-016-023>025-035-036-210800-
   NORTH CENTRAL IOWA

CITY           SKY/WX    TMP DP  RH WIND       PRES   REMARKS
ALGONA *       CLEAR     55  52  88 W9        29.98S
CLARION *        N/A     55  54  94 W10       29.96S
ESTHERVILLE    CLEAR     56  46  69 W10       29.98S
FORT DODGE *   CLEAR     55  50  82 W5        30.00S
MASON CITY     CLEAR     55  52  89 W13       29.94S
FOREST CITY *  CLEAR     55  52  88 W8        29.94S
IOWA FALLS *     N/A     55  52  88 W8        29.97S
$$

IAZ007>011-017>019-026>030-037>042-050>054-066-210800-
   NORTHEAST IOWA

CITY           SKY/WX    TMP DP  RH WIND       PRES   REMARKS
CEDAR RAPIDS   CLEAR     54  53  97 W8        29.93R
CHARLES CITY * CLEAR     55  54  94 W10       29.91S
CLINTON *      CLEAR     57  52  82 NW12      29.90R
DECORAH *      CLOUDY    54  52  94 W7        29.85F
DUBUQUE        CLEAR     55  51  86 NW7       29.87S
MONTICELLO *   CLEAR     55  54  94 W7        29.89S
OELWEIN *      CLEAR     54  54 100 W9        29.91S
WATERLOO       CLEAR     56  53  90 W10       29.91F
$$

IAZ064-065-067-068-078-210800-
   EAST CENTRAL IOWA

CITY           SKY/WX    TMP DP  RH WIND       PRES   REMARKS
DAVENPORT      CLEAR     59  52  77 NW13      29.90R
IOWA CITY        N/A     59  53  80 NW8       29.95R
MT. PLEASANT * CLEAR     63  54  72 NW10G17   29.96R
MUSCATINE *    CLEAR     63  54  72 NW12G20   29.93R
QUAD CITIES    CLEAR     62  53  72 NW17G23   29.90R
$$

IAZ062-063-075>077-085>089-095>099-210800-
   SOUTHEAST IOWA

CITY           SKY/WX    TMP DP  RH WIND       PRES   REMARKS
BURLINGTON     PTCLDY    64  56  75 NW14G22   29.94R
FAIRFIELD *    CLEAR     59  52  77 NW9       29.98R
FORT MADISON * PTCLDY    64  57  77 NW15G21   29.95R
KEOKUK *       CLEAR     66  57  72 NW12G25   29.94R
OSKALOOSA *      N/A     57  54  88 NW8       29.99S
CENTERVILLE *  CLEAR     59  54  82 NW7       30.03R
OTTUMWA        CLEAR     57  52  83 NW9       29.99R
WASHINGTON *   CLEAR     61  55  82 NW9       29.96R
$$

ABBREVIATIONS USED IN REMARKS
   TC - TEMPERATURES IN CELSIUS
  WCI - WIND CHILL INDEX
   HX - HEAT INDEX
  VSB - VISIBILITY
$$




USA.gov is the U.S. government's official web portal to all federal, state and local government web resources and services.